[[{"header":{"parameterUnit":"m.s-1","parameterCategory":2,"la1":30.2991,"la2":30.254,"lo1":-89.0895,"lo2":-89.0444,"dy":0.0017,"dx":0.0017,"nx":28,"ny":28,"refTime":"2026-02-05T09:00:00:Z","depth":"0","parameterNumber":2,"parameterNumberName":"U-component_of_CURRENTS"},"data":[0,0,0,0,0,0,0,0,0,0,0,0,0,0,0,0,0,0,0,0,0,0,0,0,0,0,0,0,0,0,0,0,0,0,0,0,0,0,0,0,0,0,0,0,0,0,0,0,0,0,0,0,0,0,0,0,0,0,0.2263,0.2264,0,0.2374,0.2375,0.2376,0.2406,0.2406,0.2405,0.2404,0.259,0.2595,0.2601,0,0,0,0,0,0,0,0,0,0,0,0,0,0.2227,0.2226,0.2263,0.2265,0.2266,0.2373,0.2375,0.2376,0.2406,0.2406,0.2405,0.2404,0.2588,0.2595,0.2601,0,0,0,0,0,0,0,0,0,0,0,0,0,0.228,0.2226,0.2263,0.2294,0.2298,0.2373,0.2375,0.2377,0.2406,0.2405,0.2405,0.2404,0.2586,0.2594,0.2602,0.2673,0,0,0.2628,0.2631,0,0,0,0,0,0,0,0,0.2277,0.2281,0.2288,0.2292,0.2296,0.2375,0.243,0.248,0.2407,0.2365,0.2404,0.2403,0.2526,0.2539,0.2561,0.2682,0.269,0.2628,0.2634,0.2637,0.2639,0,0,0,0,0,0,0,0.2273,0.2278,0.2307,0.2289,0.2294,0.2353,0.2358,0.244,0.2451,0.2369,0.2371,0.2384,0.2528,0.2553,0.2566,0.2693,0.2628,0.2636,0.2641,0.2644,0.2943,0.2946,0,0,0,0,0,0,0.2252,0.2273,0.2304,0.231,0.2284,0.2354,0.236,0.2351,0.2449,0.2462,0.2384,0.2385,0.2539,0.2556,0.2573,0.2704,0.2637,0.2645,0.265,0.294,0.2943,0.2947,0,0,0,0,0,0,0.2251,0.2253,0.2299,0.2296,0.2306,0.2354,0.2345,0.2353,0.2377,0.246,0.2474,0.2399,0.2539,0.2561,0.2665,0.2709,0.2649,0.2656,0.2936,0.2941,0.2945,0.294,0,0,0,0,0,0,0.2249,0.2251,0.224,0.2293,0.2305,0.2353,0.2346,0.2356,0.2386,0.2388,0.2478,0.2493,0.254,0.2653,0.2673,0.272,0.2663,0.2933,0.2938,0.2944,0.2937,0.2944,0.295,0,0,0,0,0,0.2247,0.2257,0.2239,0.2243,0.2286,0.2354,0.2366,0.2399,0.2388,0.2413,0.2477,0.2491,0.2702,0.2662,0.2686,0.2735,0.293,0.2937,0.2943,0.2934,0.2943,0.295,0,0,0,0,0,0,0.2269,0.2263,0.2244,0.2257,0.2296,0.2359,0.2391,0.24,0.2467,0.2472,0.2531,0.2554,0.2664,0.2707,0.266,0.2841,0.2819,0.283,0.2803,0.2812,0.2819,0.2777,0.267,0,0,0,0,0,0.2256,0.2238,0.2267,0.2279,0.2296,0.2335,0.2364,0.2386,0.245,0.2476,0.2534,0.2615,0.2713,0.2763,0.2849,0.2948,0.2984,0.2998,0.3004,0.3009,0.2995,0.3095,0.3108,0.2968,0.2968,0.2968,0,0,0.2263,0.2264,0.2252,0.2279,0.231,0.2349,0.2352,0.2406,0.2439,0.2492,0.2564,0.2643,0.2746,0.2858,0.2911,0.2896,0.3074,0.3018,0.3021,0.3003,0.3103,0.3116,0.3128,0.2973,0.2972,0.2971,0,0,0.2299,0.2276,0.2278,0.2308,0.235,0.2373,0.2383,0.2442,0.2466,0.2547,0.2604,0.27,0.2828,0.2913,0.2972,0.3071,0.3107,0.3109,0.3109,0.3208,0.3219,0.3229,0.3303,0.332,0.3111,0.3111,0.3111,0,0.2312,0.2309,0.2303,0.2336,0.2357,0.2378,0.2413,0.2454,0.2538,0.2572,0.257,0.2778,0.2852,0.3003,0.3034,0.3083,0.3136,0.3063,0.3212,0.3223,0.3234,0.3307,0.3326,0.3111,0.3111,0.3111,0.3111,0,0.2348,0.2356,0.2379,0.239,0.2419,0.2462,0.2499,0.2534,0.2552,0.2598,0.2727,0.2834,0.2953,0.3004,0.3046,0.3179,0.3193,0.3206,0.3177,0.3247,0.3321,0.334,0.3112,0.3112,0.3112,0.3111,0,0,0.2354,0.2386,0.2396,0.2399,0.2444,0.2472,0.2523,0.2581,0.2618,0.2701,0.2773,0.2932,0.2977,0.3048,0.313,0.3206,0.3327,0.3229,0.3235,0.3276,0.3539,0.3485,0.35,0.337,0.3373,0.3375,0.3563,0,0.2384,0.2431,0.2439,0.2482,0.2503,0.2523,0.2561,0.2617,0.2672,0.2752,0.2862,0.2971,0.3003,0.3068,0.3157,0.3289,0.3377,0.3274,0.3488,0.3493,0.3415,0.352,0.3457,0.3614,0.3582,0.3585,0.3588,0,0.2399,0.2432,0.2468,0.2495,0.2505,0.2528,0.2572,0.2615,0.2728,0.2774,0.2894,0.2985,0.3136,0.3136,0.3377,0.3313,0.3422,0.3505,0.3515,0.347,0.3475,0.3542,0.365,0.3414,0.3617,0.3615,0.3613,0,0.2374,0.2438,0.2452,0.2467,0.2515,0.2524,0.2544,0.2626,0.266,0.2796,0.2847,0.3036,0.3127,0.3292,0.3448,0.3435,0.3683,0.3697,0.3755,0.3752,0.374,0.3729,0.3617,0.3864,0.3864,0.3863,0.3863,0,0.2375,0.2384,0.2439,0.2451,0.2466,0.2501,0.2526,0.2575,0.2662,0.2733,0.2858,0.2962,0.3167,0.3329,0.3474,0.3662,0.3718,0.3768,0.3806,0.3738,0.3726,0.3551,0.3461,0.387,0.3869,0.3867,0.3866,0,0.2323,0.2357,0.2374,0.2434,0.2446,0.2449,0.2481,0.2517,0.2592,0.2691,0.2733,0.2925,0.3138,0.3325,0.3596,0.3682,0.3759,0.3922,0.3805,0.3823,0.3636,0.3552,0.3494,0.3409,0.4038,0.4038,0.4038,0,0.2295,0.2309,0.2353,0.2352,0.2369,0.2384,0.2401,0.2471,0.2519,0.2683,0.2742,0.295,0.3125,0.3457,0.3645,0.3884,0.3755,0.394,0.3898,0.3614,0.3551,0.3424,0.3347,0.3904,0.3903,0.3902,0.3901,0,0.2268,0.2273,0.2286,0.2291,0.2301,0.2316,0.2355,0.2385,0.2495,0.2579,0.2738,0.2885,0.3201,0.343,0.3689,0.3825,0.3701,0.3925,0.369,0.3475,0.3279,0.3217,0.3761,0.3892,0.3893,0.3894,0.3894,0.3895,0.223,0.2223,0.2235,0.2214,0.2225,0.2245,0.2247,0.2321,0.2387,0.2519,0.2697,0.2877,0.3194,0.3557,0.3631,0.361,0.3641,0.3587,0.353,0.344,0.3269,0.3757,0.3877,0.3878,0.3878,0.3879,0.3879,0,0.2199,0.2178,0.2163,0.214,0.2117,0.2153,0.2208,0.2216,0.2283,0.2449,0.2583,0.2844,0.3066,0.3244,0.335,0.3236,0.315,0.3119,0.2909,0.2875,0.3376,0.3269,0.3188,0.3188,0.3188,0.3188,0.3189,0.3189,0.2171,0.2131,0.2106,0.2034,0.2019,0.2009,0.2031,0.2074,0.2162,0.2272,0.2383,0.2532,0.2735,0.2831,0.2727,0.2711,0.2467,0.2448,0.2356,0.2644,0.2681,0.2715,0.2587,0.2364,0.2363,0.1809,0.1804,0.1801]},{"header":{"parameterUnit":"m.s-1","parameterCategory":2,"la1":30.2991,"la2":30.254,"lo1":-89.0895,"lo2":-89.0444,"dy":0.0017,"dx":0.0017,"nx":28,"ny":28,"refTime":"2026-02-05T09:00:00:Z","depth":"0","parameterNumber":3,"parameterNumberName":"V-component_of_CURRENTS"},"data":[0,0,0,0,0,0,0,0,0,0,0,0,0,0,0,0,0,0,0,0,0,0,0,0,0,0,0,0,0,0,0,0,0,0,0,0,0,0,0,0,0,0,0,0,0,0,0,0,0,0,0,0,0,0,0,0,0,0,-0.0799,-0.0799,0,-0.0764,-0.0764,-0.0763,-0.0794,-0.0796,-0.0798,-0.08,-0.0903,-0.0904,-0.0906,0,0,0,0,0,0,0,0,0,0,0,0,0,-0.0948,-0.0944,-0.0799,-0.0799,-0.0799,-0.0764,-0.0763,-0.0762,-0.0794,-0.0796,-0.0798,-0.08,-0.0903,-0.0904,-0.0906,0,0,0,0,0,0,0,0,0,0,0,0,0,-0.089,-0.0943,-0.0799,-0.0814,-0.0816,-0.0765,-0.0763,-0.0762,-0.0794,-0.0796,-0.0799,-0.0801,-0.0903,-0.0904,-0.0906,-0.0863,0,0,-0.0911,-0.0912,0,0,0,0,0,0,0,0,-0.0893,-0.0884,-0.0812,-0.0813,-0.0815,-0.0791,-0.0855,-0.0805,-0.0793,-0.0796,-0.08,-0.0803,-0.088,-0.0884,-0.0862,-0.0868,-0.0872,-0.0911,-0.0912,-0.0913,-0.0913,0,0,0,0,0,0,0,-0.0897,-0.0886,-0.078,-0.0812,-0.0814,-0.0843,-0.0837,-0.0844,-0.0822,-0.0796,-0.08,-0.0804,-0.0882,-0.086,-0.0865,-0.0874,-0.0911,-0.0912,-0.0913,-0.0914,-0.0898,-0.0897,0,0,0,0,0,0,-0.0905,-0.0888,-0.0781,-0.0779,-0.0868,-0.0838,-0.0831,-0.0792,-0.0819,-0.0826,-0.0801,-0.0805,-0.0856,-0.0863,-0.0869,-0.0851,-0.0913,-0.0914,-0.0915,-0.09,-0.0898,-0.0896,0,0,0,0,0,0,-0.0908,-0.0894,-0.0782,-0.0841,-0.083,-0.0833,-0.0789,-0.079,-0.0778,-0.0823,-0.0832,-0.0791,-0.0858,-0.0867,-0.0872,-0.0855,-0.0915,-0.0917,-0.0901,-0.0899,-0.0897,-0.0796,0,0,0,0,0,0,-0.0911,-0.0894,-0.0858,-0.0839,-0.0827,-0.0752,-0.0787,-0.0787,-0.0778,-0.0783,-0.0816,-0.0828,-0.0861,-0.0869,-0.0874,-0.0859,-0.0918,-0.0903,-0.09,-0.0898,-0.0802,-0.0791,-0.0782,0,0,0,0,0,-0.0916,-0.0865,-0.0855,-0.0843,-0.0778,-0.0751,-0.0745,-0.0756,-0.0775,-0.0757,-0.078,-0.0827,-0.0857,-0.0869,-0.0875,-0.0859,-0.0904,-0.0901,-0.0898,-0.0806,-0.0793,-0.0783,0,0,0,0,0,0,-0.0926,-0.0863,-0.0852,-0.0787,-0.077,-0.0759,-0.0743,-0.0747,-0.0743,-0.0757,-0.0799,-0.0811,-0.0812,-0.0842,-0.0854,-0.0847,-0.0892,-0.0889,-0.082,-0.0808,-0.0799,-0.0782,-0.0919,0,0,0,0,0,-0.0905,-0.0848,-0.081,-0.0768,-0.0749,-0.074,-0.0729,-0.0735,-0.0736,-0.0736,-0.0755,-0.0781,-0.0796,-0.0809,-0.0825,-0.0812,-0.0832,-0.0809,-0.0799,-0.0791,-0.078,-0.0783,-0.0772,-0.0886,-0.0886,-0.0886,0,0,-0.0908,-0.0864,-0.0836,-0.0766,-0.0751,-0.071,-0.0738,-0.0719,-0.0689,-0.075,-0.0714,-0.0746,-0.0784,-0.0772,-0.0777,-0.0801,-0.0767,-0.0787,-0.0779,-0.0773,-0.0779,-0.0768,-0.0758,-0.0884,-0.0884,-0.0884,0,0,-0.0899,-0.0832,-0.0787,-0.0753,-0.072,-0.0697,-0.069,-0.0662,-0.0649,-0.0618,-0.066,-0.067,-0.0684,-0.0701,-0.0716,-0.0658,-0.0714,-0.0678,-0.0616,-0.0618,-0.0609,-0.0601,-0.0602,-0.0595,-0.0674,-0.0674,-0.0674,0,-0.0907,-0.0821,-0.0779,-0.0731,-0.0688,-0.0687,-0.0632,-0.0612,-0.0595,-0.0575,-0.0603,-0.0607,-0.0643,-0.0632,-0.0618,-0.0636,-0.0651,-0.0657,-0.0605,-0.0597,-0.0591,-0.0594,-0.0588,-0.0669,-0.0669,-0.067,-0.067,0,-0.0869,-0.0792,-0.0766,-0.0679,-0.063,-0.0587,-0.0543,-0.0502,-0.0487,-0.0483,-0.046,-0.0494,-0.0505,-0.0517,-0.0552,-0.0527,-0.0555,-0.059,-0.0633,-0.0573,-0.0581,-0.0576,-0.0661,-0.0663,-0.0665,-0.0666,0,0,-0.0886,-0.0758,-0.0747,-0.0672,-0.0585,-0.0536,-0.0465,-0.0393,-0.0353,-0.0352,-0.0304,-0.033,-0.037,-0.0388,-0.0436,-0.0437,-0.0406,-0.0492,-0.0495,-0.049,-0.0409,-0.0412,-0.0407,-0.0437,-0.0436,-0.0435,-0.0429,0,-0.0859,-0.0749,-0.0686,-0.0564,-0.0477,-0.0416,-0.0338,-0.0285,-0.0262,-0.0223,-0.0257,-0.0255,-0.0317,-0.0331,-0.0338,-0.0395,-0.039,-0.0404,-0.0471,-0.0473,-0.0479,-0.0401,-0.0365,-0.0355,-0.0424,-0.0424,-0.0423,0,-0.0805,-0.0731,-0.0609,-0.0438,-0.0396,-0.0336,-0.019,-0.0128,-0.0091,-0.0083,-0.0098,-0.0146,-0.016,-0.0221,-0.0266,-0.0277,-0.0329,-0.0368,-0.037,-0.0404,-0.0465,-0.0428,-0.0345,-0.0425,-0.0416,-0.0417,-0.0417,0,-0.0773,-0.0643,-0.0532,-0.0481,-0.0326,-0.0253,-0.0173,-0.0096,-0.0034,-0.0017,-0.0002,-0.0039,-0.0054,-0.0116,-0.0209,-0.0241,-0.0253,-0.0311,-0.0353,-0.0355,-0.0352,-0.0355,-0.035,-0.0322,-0.0322,-0.0322,-0.0322,0,-0.0697,-0.0596,-0.0517,-0.0447,-0.0324,-0.0216,-0.0095,-0.0036,0.0037,0.0103,0.0051,0.008,-0.0029,-0.0063,-0.0158,-0.0227,-0.0214,-0.0317,-0.0342,-0.0316,-0.0315,-0.0411,-0.0474,-0.0322,-0.0322,-0.0322,-0.0322,0,-0.0633,-0.0572,-0.0452,-0.0336,-0.0292,-0.0208,-0.0056,0.0023,0.0083,0.0167,0.0172,0.017,0.0133,0.0031,-0.0059,-0.0151,-0.0261,-0.0256,-0.0215,-0.0235,-0.0367,-0.0426,-0.0449,-0.0464,-0.0303,-0.0303,-0.0302,0,-0.0574,-0.0514,-0.0423,-0.0355,-0.0297,-0.0174,-0.0078,0.0022,0.0098,0.0228,0.0267,0.0265,0.0285,0.0162,-0.0006,-0.0143,-0.0231,-0.0206,-0.026,-0.034,-0.0426,-0.0464,-0.0479,-0.0216,-0.0215,-0.0215,-0.0214,0,-0.0498,-0.0494,-0.0419,-0.0311,-0.0216,-0.0108,0.0025,0.0086,0.0224,0.0319,0.0441,0.0481,0.0366,0.0273,0.0083,-0.0043,-0.0245,-0.0198,-0.0286,-0.0347,-0.0383,-0.0421,-0.0262,-0.0208,-0.0209,-0.0209,-0.021,-0.021,-0.0477,-0.0432,-0.0358,-0.0242,-0.0139,-0.002,0.0088,0.0218,0.0372,0.0569,0.0582,0.0723,0.0563,0.0308,0.0104,-0.0205,-0.0223,-0.0279,-0.034,-0.0369,-0.0387,-0.0211,-0.0189,-0.019,-0.019,-0.019,-0.0191,0,-0.0443,-0.037,-0.0266,-0.0127,-0.0007,0.003,0.0191,0.0311,0.0505,0.0692,0.0841,0.091,0.069,0.04,-0.0027,-0.0273,-0.0376,-0.0399,-0.0445,-0.0451,-0.0291,-0.0291,-0.0283,-0.0283,-0.0283,-0.0283,-0.0283,-0.0283,-0.0404,-0.0309,-0.0247,-0.0035,0.0074,0.0232,0.0326,0.0489,0.0654,0.0938,0.1103,0.1189,0.1008,0.026,-0.0264,-0.0405,-0.0554,-0.0593,-0.0667,-0.0574,-0.0568,-0.0562,-0.0576,-0.0627,-0.0628,-0.0772,-0.0774,-0.0776]}],[{"header":{"parameterUnit":"m.s-1","parameterCategory":2,"la1":30.2991,"la2":30.254,"lo1":-89.0895,"lo2":-89.0444,"dy":0.0017,"dx":0.0017,"nx":28,"ny":28,"refTime":"2026-02-05T09:00:00:Z","depth":"2","parameterNumber":2,"parameterNumberName":"U-component_of_CURRENTS"},"data":[0,0,0,0,0,0,0,0,0,0,0,0,0,0,0,0,0,0,0,0,0,0,0,0,0,0,0,0,0,0,0,0,0,0,0,0,0,0,0,0,0,0,0,0,0,0,0,0,0,0,0,0,0,0,0,0,0,0,0.0406,0.0407,0,0.0496,0.0497,0.0499,0.0582,0.0582,0.0583,0.0583,0.0686,0.0689,0.0691,0,0,0,0,0,0,0,0,0,0,0,0,0,0.0312,0.0314,0.0406,0.0407,0.0407,0.0496,0.0498,0.0499,0.0582,0.0582,0.0583,0.0583,0.0686,0.0688,0.0691,0,0,0,0,0,0,0,0,0,0,0,0,0,0.0379,0.0315,0.0406,0.0454,0.0459,0.0495,0.0498,0.05,0.0582,0.0582,0.0583,0.0583,0.0685,0.0688,0.0692,0.0701,0,0,0.0702,0.0704,0,0,0,0,0,0,0,0,0.0375,0.0383,0.0447,0.0451,0.0456,0.0523,0.0502,0.0566,0.0581,0.0542,0.0583,0.0584,0.0628,0.0636,0.0661,0.0706,0.071,0.0703,0.0705,0.0706,0.0707,0,0,0,0,0,0,0,0.037,0.0379,0.0448,0.0447,0.0453,0.0473,0.0484,0.0515,0.0586,0.0545,0.055,0.055,0.0632,0.0657,0.0664,0.0712,0.0703,0.0706,0.0708,0.0709,0.0881,0.0883,0,0,0,0,0,0,0.0345,0.0375,0.0445,0.045,0.0409,0.0473,0.0486,0.0506,0.0585,0.0596,0.0549,0.0553,0.0651,0.066,0.0668,0.0793,0.0706,0.071,0.0712,0.0878,0.0881,0.0884,0,0,0,0,0,0,0.0343,0.0352,0.0442,0.0408,0.042,0.0474,0.0496,0.0507,0.0565,0.0586,0.0599,0.0597,0.0652,0.0663,0.0763,0.0794,0.0711,0.0714,0.0875,0.0879,0.0882,0.0974,0,0,0,0,0,0,0.0341,0.0351,0.0393,0.0407,0.0421,0.0493,0.0495,0.0508,0.0558,0.0566,0.0631,0.064,0.0653,0.0758,0.0767,0.0797,0.0717,0.0872,0.0877,0.0881,0.0968,0.098,0.0991,0,0,0,0,0,0.0337,0.0399,0.0395,0.0404,0.0465,0.0494,0.0505,0.0548,0.056,0.06,0.0667,0.0639,0.0791,0.0765,0.0774,0.0805,0.087,0.0876,0.0881,0.0962,0.0978,0.099,0,0,0,0,0,0,0.0395,0.0413,0.0408,0.0477,0.0487,0.0506,0.0552,0.0565,0.0647,0.0669,0.0691,0.0706,0.0796,0.0796,0.0765,0.0868,0.0817,0.0825,0.0876,0.089,0.0901,0.092,0.072,0,0,0,0,0,0.0415,0.0473,0.0461,0.0525,0.052,0.0535,0.0563,0.0583,0.0633,0.0671,0.0723,0.0773,0.0818,0.0854,0.0895,0.0964,0.095,0.0984,0.0995,0.1005,0.1027,0.1034,0.1048,0.0902,0.0902,0.0901,0,0,0.0446,0.0475,0.0502,0.0541,0.055,0.0588,0.0558,0.0605,0.067,0.0667,0.0805,0.0822,0.0847,0.0932,0.0968,0.0942,0.1042,0.1012,0.102,0.1037,0.1042,0.1056,0.1068,0.0905,0.0905,0.0904,0,0,0.0518,0.0558,0.06,0.0614,0.0634,0.0661,0.0674,0.0706,0.0753,0.0857,0.0868,0.0915,0.1008,0.1025,0.1041,0.1138,0.1101,0.1145,0.1223,0.123,0.1242,0.1252,0.1257,0.1267,0.1151,0.1151,0.1152,0,0.054,0.0611,0.062,0.0653,0.0691,0.0694,0.0742,0.0791,0.0873,0.0915,0.092,0.1036,0.1047,0.112,0.1164,0.1161,0.117,0.1166,0.1244,0.1254,0.1262,0.1265,0.1275,0.1156,0.1156,0.1155,0.1155,0,0.0622,0.0679,0.0706,0.0766,0.0817,0.0863,0.0899,0.0997,0.1052,0.1064,0.1155,0.1177,0.1244,0.1234,0.1242,0.1307,0.1295,0.1253,0.1204,0.1282,0.1281,0.1289,0.1164,0.1162,0.116,0.1159,0,0,0.0641,0.0737,0.0746,0.0803,0.0879,0.0937,0.1068,0.1155,0.1233,0.1287,0.1368,0.1418,0.1397,0.1416,0.14,0.14,0.146,0.1377,0.1375,0.1376,0.1497,0.1417,0.1417,0.1443,0.1445,0.1447,0.1471,0,0.0685,0.0784,0.0839,0.0976,0.1023,0.111,0.1233,0.1325,0.1382,0.1467,0.1447,0.1507,0.1471,0.1507,0.1508,0.1475,0.1489,0.1458,0.1428,0.1427,0.134,0.1426,0.1352,0.1362,0.1479,0.1481,0.1481,0,0.0744,0.0805,0.0933,0.1092,0.1121,0.1238,0.1446,0.1543,0.1627,0.1657,0.1691,0.1667,0.1706,0.1645,0.1645,0.164,0.1604,0.1551,0.1549,0.1451,0.1363,0.1303,0.1372,0.1495,0.1494,0.1493,0.1492,0,0.0802,0.0894,0.1028,0.1071,0.1236,0.1368,0.1484,0.1604,0.1665,0.1773,0.1798,0.1824,0.1851,0.1816,0.1753,0.172,0.1721,0.1644,0.1532,0.1525,0.1442,0.1424,0.1648,0.1648,0.1648,0.1648,0.1648,0,0.0886,0.0995,0.1067,0.1163,0.1292,0.1422,0.159,0.1695,0.1797,0.1852,0.1888,0.1925,0.1901,0.189,0.1813,0.172,0.1782,0.1574,0.1536,0.1472,0.1457,0.155,0.1538,0.1649,0.1649,0.1649,0.1648,0,0.0993,0.1054,0.1174,0.131,0.1342,0.1457,0.1613,0.17,0.1828,0.1913,0.1957,0.2017,0.2051,0.1994,0.194,0.1793,0.1703,0.1654,0.1585,0.1537,0.1483,0.1476,0.1519,0.1517,0.1514,0.1513,0.1511,0,0.11,0.1149,0.1224,0.127,0.1353,0.149,0.156,0.1693,0.1769,0.1954,0.198,0.2072,0.2035,0.1931,0.183,0.1699,0.1731,0.1498,0.1395,0.1517,0.1475,0.1471,0.1467,0.1329,0.1327,0.1324,0.1322,0,0.1183,0.1184,0.1249,0.1312,0.1389,0.1437,0.1567,0.16,0.1786,0.1857,0.1964,0.1943,0.1928,0.173,0.1587,0.1523,0.1509,0.1441,0.1621,0.1359,0.1335,0.1295,0.1298,0.1302,0.1304,0.1306,0.1307,0.1308,0.1182,0.1209,0.1246,0.1321,0.1363,0.1388,0.1449,0.1555,0.1623,0.1715,0.1768,0.1693,0.1523,0.1258,0.1239,0.1359,0.1372,0.1241,0.125,0.126,0.1219,0.1192,0.1125,0.1126,0.1127,0.1127,0.1128,0,0.117,0.1196,0.1249,0.1311,0.1341,0.1392,0.1442,0.1487,0.154,0.1533,0.1533,0.1198,0.0981,0.1028,0.11,0.1001,0.1074,0.1045,0.1077,0.1095,0.1112,0.1066,0.093,0.093,0.0929,0.0929,0,0,0.1134,0.1175,0.1203,0.1231,0.1314,0.1337,0.1357,0.1379,0.1375,0.1239,0.1153,0.0899,0.0864,0.075,0.0753,0.0884,0.1033,0.0945,0.1096,0.1151,0.1168,0.1206,0.1152,0,0,0,0,0]},{"header":{"parameterUnit":"m.s-1","parameterCategory":2,"la1":30.2991,"la2":30.254,"lo1":-89.0895,"lo2":-89.0444,"dy":0.0017,"dx":0.0017,"nx":28,"ny":28,"refTime":"2026-02-05T09:00:00:Z","depth":"2","parameterNumber":3,"parameterNumberName":"V-component_of_CURRENTS"},"data":[0,0,0,0,0,0,0,0,0,0,0,0,0,0,0,0,0,0,0,0,0,0,0,0,0,0,0,0,0,0,0,0,0,0,0,0,0,0,0,0,0,0,0,0,0,0,0,0,0,0,0,0,0,0,0,0,0,0,0.0583,0.0583,0,0.056,0.0559,0.0558,0.0429,0.0426,0.0424,0.0422,0.013,0.0124,0.0118,0,0,0,0,0,0,0,0,0,0,0,0,0,0.0499,0.05,0.0583,0.0583,0.0584,0.056,0.0559,0.0558,0.0429,0.0426,0.0424,0.0421,0.0131,0.0125,0.0118,0,0,0,0,0,0,0,0,0,0,0,0,0,0.0503,0.0501,0.0583,0.0523,0.0518,0.0561,0.0559,0.0558,0.043,0.0426,0.0423,0.042,0.0134,0.0125,0.0117,0.0134,0,0,0.0091,0.0087,0,0,0,0,0,0,0,0,0.0503,0.0505,0.0531,0.0528,0.0522,0.0502,0.0423,0.0406,0.0431,0.0454,0.0422,0.0418,0.0237,0.022,0.0215,0.012,0.0107,0.009,0.0085,0.0082,0.0079,0,0,0,0,0,0,0,0.0503,0.0506,0.0565,0.0533,0.0527,0.0493,0.0489,0.0419,0.0353,0.0452,0.0444,0.0457,0.0231,0.0224,0.0206,0.0103,0.0091,0.0083,0.0078,0.0075,-0.007,-0.0068,0,0,0,0,0,0,0.0529,0.0506,0.0566,0.0565,0.0514,0.0498,0.0493,0.0504,0.036,0.0339,0.046,0.0452,0.024,0.0216,0.0195,0.0169,0.0082,0.0074,0.0069,-0.0071,-0.0069,-0.0068,0,0,0,0,0,0,0.0527,0.0535,0.0567,0.0542,0.0544,0.0504,0.0517,0.0506,0.0487,0.0371,0.0342,0.0453,0.0236,0.0207,0.0127,0.0157,0.007,0.0062,-0.0072,-0.007,-0.0069,0.0139,0,0,0,0,0,0,0.0525,0.0534,0.0539,0.0544,0.0547,0.0601,0.0521,0.0508,0.0506,0.0493,0.0356,0.0326,0.0231,0.0141,0.0119,0.0144,0.0056,-0.0074,-0.0071,-0.0069,0.0131,0.0148,0.0162,0,0,0,0,0,0.0522,0.0541,0.0539,0.0546,0.0559,0.0604,0.0602,0.0555,0.0509,0.052,0.0416,0.0329,0.0139,0.0136,0.0109,0.0133,-0.0075,-0.0072,-0.0069,0.0123,0.0144,0.0162,0,0,0,0,0,0,0.0507,0.0531,0.0528,0.0553,0.0587,0.0585,0.0595,0.0571,0.0506,0.0479,0.0347,0.0312,0.0256,0.0168,0.0167,0.0097,0.0018,0.0016,0.0173,0.0192,0.0208,0.0224,0.0049,0,0,0,0,0,0.0516,0.0509,0.0566,0.0572,0.0615,0.0611,0.0618,0.0603,0.0561,0.053,0.0438,0.0333,0.0256,0.0201,0.0122,0.0086,0.0007,0.0081,0.0098,0.0112,0.0107,0.0011,0.0018,-0.0059,-0.0059,-0.0059,0,0,0.049,0.0515,0.05,0.0566,0.0589,0.0639,0.0604,0.064,0.0644,0.0507,0.0462,0.0389,0.026,0.022,0.0186,0.0142,0.0104,0.0116,0.0129,0.0115,0.0014,0.0022,0.0028,-0.0057,-0.0057,-0.0057,0,0,0.0491,0.0501,0.0532,0.0592,0.0665,0.0653,0.0674,0.0704,0.0687,0.0666,0.0565,0.051,0.0391,0.0318,0.0258,0.0313,0.0198,0.0291,0.0376,0.0286,0.0291,0.0295,0.0264,0.0263,0.0293,0.0293,0.0294,0,0.0502,0.0537,0.0548,0.0644,0.0669,0.0667,0.0725,0.073,0.0708,0.0707,0.0666,0.0532,0.0435,0.0377,0.0399,0.0349,0.0295,0.0321,0.0308,0.0309,0.0309,0.0276,0.0272,0.0304,0.0302,0.0301,0.03,0,0.0545,0.0605,0.0646,0.0724,0.0735,0.0802,0.0824,0.0824,0.0791,0.0801,0.0773,0.067,0.058,0.0565,0.0493,0.0463,0.0428,0.035,0.0268,0.033,0.0291,0.0283,0.0318,0.0315,0.0312,0.0309,0,0,0.0551,0.0662,0.0678,0.0719,0.0799,0.0798,0.082,0.0849,0.0867,0.0858,0.0864,0.0782,0.0762,0.0693,0.0617,0.0556,0.0542,0.0471,0.0461,0.0456,0.0386,0.0401,0.0393,0.046,0.0458,0.0457,0.0381,0,0.0621,0.0755,0.0761,0.0817,0.09,0.0884,0.0901,0.0907,0.0907,0.0923,0.0879,0.0851,0.0803,0.0763,0.071,0.057,0.052,0.0572,0.0309,0.0302,0.032,0.0384,0.036,0.0292,0.0372,0.0371,0.037,0,0.0683,0.077,0.0844,0.0892,0.0921,0.0903,0.0878,0.09,0.0947,0.0969,0.0967,0.0949,0.0891,0.0817,0.065,0.0686,0.0556,0.0456,0.0448,0.0374,0.0301,0.0225,0.0273,0.0355,0.0356,0.0357,0.0358,0,0.0641,0.0799,0.0811,0.0852,0.0922,0.0887,0.0868,0.0907,0.0945,0.0973,0.1014,0.0977,0.0921,0.0779,0.0631,0.0619,0.0441,0.0378,0.0281,0.0282,0.0162,0.0155,0.0235,0.0235,0.0235,0.0235,0.0235,0,0.0698,0.0722,0.0793,0.0815,0.0859,0.0855,0.0861,0.0892,0.0933,0.0993,0.1016,0.1049,0.0899,0.0815,0.066,0.048,0.0453,0.0312,0.0256,0.0242,0.0244,0.0194,0.0191,0.0232,0.0233,0.0234,0.0234,0,0.0634,0.0692,0.0736,0.0802,0.0842,0.0822,0.0867,0.0909,0.0937,0.0994,0.1001,0.1066,0.0969,0.0844,0.0611,0.0505,0.0323,0.0247,0.029,0.0241,0.0225,0.0233,0.0147,0.0146,0.0146,0.0146,0.0146,0,0.0581,0.0638,0.0714,0.0739,0.0756,0.0779,0.0855,0.0912,0.0949,0.1012,0.1048,0.1021,0.1052,0.0813,0.0565,0.0329,0.0304,0.0178,0.0141,0.0259,0.0212,0.0221,0.0228,0.0082,0.0081,0.0081,0.008,0,0.0582,0.0596,0.0618,0.0704,0.0749,0.0861,0.092,0.0985,0.1035,0.1115,0.1204,0.1232,0.101,0.0796,0.0491,0.0343,0.023,0.0162,0.0221,0.0126,0.0195,0.0151,0.0161,0.0076,0.0076,0.0077,0.0077,0.0077,0.055,0.0562,0.0612,0.0664,0.0753,0.0916,0.0986,0.1073,0.1207,0.1271,0.1288,0.125,0.0882,0.0482,0.0289,0.0147,0.0161,0.0079,0.008,0.0082,0.0106,0.0173,0.0057,0.0057,0.0057,0.0057,0.0058,0,0.0537,0.0571,0.0613,0.0687,0.0761,0.0845,0.1033,0.1111,0.1269,0.128,0.132,0.0947,0.0695,0.0398,0.0158,-0.0003,-0.0013,-0.0016,-0.0027,-0.0021,-0.0016,0.0003,-0.0074,-0.0075,-0.0076,-0.0077,0,0,0.056,0.0582,0.0611,0.0725,0.0749,0.0926,0.104,0.1197,0.1229,0.1287,0.118,0.0931,0.0586,0.0289,0.0089,0.0055,0.007,0.0052,0.0174,0.0193,0.02,0.0053,0.0092,0,0,0,0,0]}],[{"header":{"parameterUnit":"m.s-1","parameterCategory":2,"la1":30.2991,"la2":30.254,"lo1":-89.0895,"lo2":-89.0444,"dy":0.0017,"dx":0.0017,"nx":28,"ny":28,"refTime":"2026-02-05T09:00:00:Z","depth":"4","parameterNumber":2,"parameterNumberName":"U-component_of_CURRENTS"},"data":[0,0,0,0,0,0,0,0,0,0,0,0,0,0,0,0,0,0,0,0,0,0,0,0,0,0,0,0,0,0,0,0,0,0,0,0,0,0,0,0,0,0,0,0,0,0,0,0,0,0,0,0,0,0,0,0,0,0,-0.0467,-0.0467,0,-0.0464,-0.0464,-0.0464,-0.0479,-0.048,-0.048,-0.048,-0.0539,-0.054,-0.0542,0,0,0,0,0,0,0,0,0,0,0,0,0,-0.0442,-0.0443,-0.0467,-0.0467,-0.0466,-0.0464,-0.0464,-0.0464,-0.0479,-0.048,-0.048,-0.048,-0.0538,-0.054,-0.0542,0,0,0,0,0,0,0,0,0,0,0,0,0,-0.0451,-0.0444,-0.0467,-0.0471,-0.0471,-0.0464,-0.0464,-0.0464,-0.0479,-0.048,-0.048,-0.048,-0.0538,-0.054,-0.0542,-0.0553,0,0,-0.0549,-0.055,0,0,0,0,0,0,0,0,-0.0451,-0.0453,-0.0471,-0.0471,-0.047,-0.0469,-0.0477,-0.0496,-0.0479,-0.048,-0.048,-0.048,-0.0519,-0.0522,-0.0526,-0.0556,-0.0558,-0.0549,-0.055,-0.0551,-0.0552,0,0,0,0,0,0,0,-0.045,-0.0453,-0.047,-0.047,-0.047,-0.0457,-0.0459,-0.048,-0.0503,-0.048,-0.048,-0.0474,-0.052,-0.0524,-0.0528,-0.0559,-0.0549,-0.0551,-0.0552,-0.0553,-0.0685,-0.0687,0,0,0,0,0,0,-0.0445,-0.0452,-0.047,-0.0469,-0.0456,-0.0457,-0.046,-0.0472,-0.0501,-0.0504,-0.0474,-0.0474,-0.052,-0.0525,-0.053,-0.0637,-0.0551,-0.0553,-0.0555,-0.0683,-0.0686,-0.0688,0,0,0,0,0,0,-0.0445,-0.0448,-0.047,-0.0456,-0.0458,-0.0457,-0.0471,-0.0472,-0.0491,-0.0495,-0.05,-0.0493,-0.052,-0.0527,-0.0584,-0.0636,-0.0554,-0.0556,-0.068,-0.0684,-0.0687,-0.0792,0,0,0,0,0,0,-0.0445,-0.0448,-0.0471,-0.0457,-0.0458,-0.0477,-0.0471,-0.0472,-0.0484,-0.0486,-0.0513,-0.0517,-0.0521,-0.0581,-0.0586,-0.0637,-0.0558,-0.0678,-0.0682,-0.0686,-0.0786,-0.0799,-0.081,0,0,0,0,0,-0.0444,-0.0466,-0.0473,-0.0475,-0.0485,-0.0477,-0.0478,-0.0479,-0.0485,-0.0497,-0.0533,-0.0517,-0.061,-0.0585,-0.059,-0.0644,-0.0676,-0.0681,-0.0685,-0.0781,-0.0796,-0.081,0,0,0,0,0,0,-0.0454,-0.0469,-0.0476,-0.0499,-0.0495,-0.0479,-0.0486,-0.049,-0.0525,-0.0544,-0.0547,-0.0555,-0.0616,-0.0617,-0.0588,-0.0692,-0.0639,-0.0645,-0.071,-0.0724,-0.0736,-0.0741,-0.056,0,0,0,0,0,-0.0469,-0.0499,-0.0493,-0.0511,-0.0509,-0.0504,-0.0506,-0.0516,-0.0532,-0.0547,-0.0574,-0.0607,-0.0638,-0.0671,-0.0689,-0.0756,-0.0733,-0.0792,-0.0804,-0.0814,-0.0822,-0.0837,-0.0851,-0.0704,-0.0704,-0.0704,0,0,-0.0478,-0.0486,-0.0505,-0.0517,-0.0512,-0.052,-0.0507,-0.0522,-0.0549,-0.055,-0.0615,-0.0642,-0.0659,-0.073,-0.0759,-0.0744,-0.0844,-0.082,-0.0829,-0.0831,-0.0843,-0.0858,-0.087,-0.0707,-0.0707,-0.0706,0,0,-0.049,-0.0513,-0.0538,-0.0537,-0.0544,-0.0548,-0.0556,-0.0571,-0.0598,-0.0667,-0.067,-0.0729,-0.0791,-0.0814,-0.0831,-0.0916,-0.089,-0.0935,-0.1022,-0.1038,-0.105,-0.106,-0.1044,-0.1052,-0.0961,-0.0961,-0.0961,0,-0.0496,-0.0524,-0.0539,-0.0547,-0.0551,-0.0561,-0.0577,-0.0603,-0.0648,-0.0675,-0.0705,-0.0806,-0.0826,-0.0892,-0.0947,-0.0942,-0.0945,-0.0968,-0.1053,-0.1062,-0.1071,-0.1052,-0.106,-0.0966,-0.0966,-0.0965,-0.0965,0,-0.051,-0.0539,-0.0541,-0.0569,-0.0586,-0.0596,-0.0626,-0.0674,-0.0727,-0.075,-0.0844,-0.0903,-0.0968,-0.0992,-0.1014,-0.1095,-0.1073,-0.1049,-0.1015,-0.1092,-0.1067,-0.1073,-0.0975,-0.0973,-0.0971,-0.0969,0,0,-0.0506,-0.0547,-0.0552,-0.0564,-0.0601,-0.0607,-0.0674,-0.0715,-0.0758,-0.0849,-0.0914,-0.1016,-0.1065,-0.109,-0.1128,-0.1173,-0.1248,-0.1175,-0.1173,-0.1156,-0.1283,-0.1061,-0.1045,-0.1259,-0.1261,-0.1263,-0.1238,0,-0.0506,-0.0527,-0.0565,-0.0596,-0.0601,-0.0648,-0.0699,-0.0753,-0.0825,-0.0896,-0.0972,-0.1055,-0.1095,-0.1175,-0.1225,-0.1242,-0.1272,-0.1256,-0.1213,-0.1211,-0.1002,-0.1047,-0.1268,-0.1242,-0.1244,-0.1244,-0.1245,0,-0.0508,-0.052,-0.0561,-0.0603,-0.0612,-0.0664,-0.075,-0.0807,-0.0897,-0.0967,-0.1075,-0.1118,-0.1231,-0.1249,-0.1324,-0.1327,-0.1327,-0.1324,-0.1322,-0.108,-0.0999,-0.115,-0.1255,-0.1254,-0.1253,-0.1253,-0.1252,0,-0.0483,-0.0516,-0.0556,-0.0566,-0.0626,-0.0691,-0.075,-0.0843,-0.0894,-0.1044,-0.1096,-0.1207,-0.1281,-0.1329,-0.1346,-0.1366,-0.1375,-0.1376,-0.1155,-0.1139,-0.13,-0.1289,-0.1397,-0.1397,-0.1397,-0.1397,-0.1397,0,-0.0463,-0.0486,-0.056,-0.0578,-0.063,-0.0703,-0.0795,-0.0875,-0.0989,-0.0992,-0.1158,-0.1156,-0.1315,-0.132,-0.1349,-0.1253,-0.1372,-0.1165,-0.1119,-0.1344,-0.1338,-0.1303,-0.1292,-0.1396,-0.1396,-0.1397,-0.1397,0,-0.0444,-0.0483,-0.0522,-0.0603,-0.0631,-0.0696,-0.081,-0.0847,-0.0996,-0.1019,-0.1073,-0.1153,-0.1123,-0.1202,-0.123,-0.1206,-0.1166,-0.1091,-0.1307,-0.1274,-0.0926,-0.0922,-0.0864,-0.0856,-0.0849,-0.0843,-0.0839,0,-0.0436,-0.0463,-0.054,-0.0559,-0.0616,-0.0704,-0.0732,-0.0864,-0.0875,-0.0928,-0.0889,-0.0913,-0.092,-0.0831,-0.091,-0.0926,-0.0903,-0.0931,-0.0962,-0.0911,-0.0873,-0.088,-0.0884,-0.0828,-0.0826,-0.0824,-0.0823,0,-0.0424,-0.0476,-0.0505,-0.0541,-0.0585,-0.0591,-0.0639,-0.0642,-0.0712,-0.0812,-0.07,-0.0687,-0.0605,-0.0633,-0.0661,-0.0662,-0.0963,-0.0861,-0.0876,-0.0905,-0.0866,-0.0837,-0.085,-0.0799,-0.0802,-0.0805,-0.0806,0,-0.042,-0.0435,-0.0483,-0.0511,-0.052,-0.0473,-0.0514,-0.0473,-0.0505,-0.0553,-0.045,-0.0465,-0.0504,-0.0478,-0.0471,-0.0489,-0.0482,-0.0539,-0.0571,-0.0598,-0.0522,-0.0435,-0.019,0,0,0,0,0,-0.0407,-0.0413,-0.0431,-0.0424,-0.0413,-0.0418,-0.0417,-0.0444,-0.0463,-0.0345,-0.0421,-0.0316,-0.0281,-0.0291,-0.0253,-0.0331,-0.0499,-0.0286,-0.0586,-0.0669,-0.0696,-0.063,0,0,0,0,0,0,-0.0389,-0.0414,-0.0418,-0.0343,-0.0309,-0.0269,-0.0268,-0.0275,-0.0225,-0.0257,-0.0241,-0.0273,-0.0257,-0.0286,-0.0236,-0.0242,-0.0418,-0.0301,-0.0299,-0.0653,-0.0678,-0.07,-0.0642,0,0,0,0,0]},{"header":{"parameterUnit":"m.s-1","parameterCategory":2,"la1":30.2991,"la2":30.254,"lo1":-89.0895,"lo2":-89.0444,"dy":0.0017,"dx":0.0017,"nx":28,"ny":28,"refTime":"2026-02-05T09:00:00:Z","depth":"4","parameterNumber":3,"parameterNumberName":"V-component_of_CURRENTS"},"data":[0,0,0,0,0,0,0,0,0,0,0,0,0,0,0,0,0,0,0,0,0,0,0,0,0,0,0,0,0,0,0,0,0,0,0,0,0,0,0,0,0,0,0,0,0,0,0,0,0,0,0,0,0,0,0,0,0,0,0.0091,0.0091,0,0.0077,0.0077,0.0077,0.0117,0.0118,0.0119,0.012,0.0194,0.0195,0.0196,0,0,0,0,0,0,0,0,0,0,0,0,0,0.0152,0.015,0.0091,0.0091,0.0091,0.0077,0.0077,0.0077,0.0117,0.0119,0.012,0.0121,0.0194,0.0195,0.0196,0,0,0,0,0,0,0,0,0,0,0,0,0,0.0133,0.015,0.0092,0.0107,0.0108,0.0077,0.0077,0.0077,0.0117,0.0119,0.012,0.0121,0.0193,0.0195,0.0196,0.0176,0,0,0.0201,0.0202,0,0,0,0,0,0,0,0,0.0134,0.0131,0.0105,0.0106,0.0107,0.0098,0.0125,0.0114,0.0117,0.0116,0.012,0.0122,0.0168,0.0171,0.0168,0.0179,0.0182,0.0201,0.0202,0.0203,0.0203,0,0,0,0,0,0,0,0.0135,0.0131,0.0088,0.0105,0.0106,0.0114,0.0113,0.0123,0.0137,0.0117,0.0119,0.0113,0.0169,0.0166,0.017,0.0183,0.0201,0.0203,0.0204,0.0204,0.0209,0.0209,0,0,0,0,0,0,0.013,0.0132,0.0089,0.0088,0.0121,0.0112,0.0111,0.0102,0.0135,0.014,0.0111,0.0114,0.0163,0.0168,0.0173,0.0178,0.0203,0.0204,0.0205,0.021,0.0209,0.0208,0,0,0,0,0,0,0.0131,0.0126,0.0089,0.0108,0.0104,0.0109,0.0098,0.0101,0.0107,0.013,0.0138,0.0116,0.0164,0.0171,0.0183,0.0181,0.0205,0.0206,0.0211,0.021,0.0209,0.0172,0,0,0,0,0,0,0.0133,0.0126,0.0116,0.0108,0.0103,0.0075,0.0097,0.0099,0.0099,0.0104,0.0136,0.0144,0.0166,0.018,0.0184,0.0183,0.0208,0.0212,0.0211,0.0209,0.0174,0.0169,0.0165,0,0,0,0,0,0.0135,0.0112,0.0115,0.011,0.0089,0.0074,0.0072,0.0083,0.0098,0.0096,0.0116,0.0144,0.0174,0.018,0.0186,0.0185,0.0213,0.0211,0.0209,0.0176,0.017,0.0166,0,0,0,0,0,0,0.0129,0.0113,0.0117,0.009,0.0085,0.008,0.0068,0.0081,0.0092,0.0102,0.0131,0.014,0.0146,0.0166,0.0173,0.018,0.0199,0.0198,0.0171,0.0166,0.0162,0.0158,0.0209,0,0,0,0,0,0.0121,0.0104,0.0094,0.0074,0.0066,0.0069,0.0063,0.0076,0.0082,0.0089,0.0113,0.0133,0.0138,0.0154,0.0163,0.0169,0.0188,0.0171,0.0167,0.0164,0.0162,0.0187,0.0186,0.0203,0.0203,0.0203,0,0,0.0115,0.0101,0.0093,0.0072,0.0065,0.0049,0.007,0.0062,0.0056,0.0095,0.0098,0.0116,0.0133,0.0137,0.0143,0.0159,0.0166,0.0161,0.0158,0.0159,0.0185,0.0184,0.0182,0.0201,0.0202,0.0202,0,0,0.0091,0.0077,0.0058,0.0048,0.0037,0.0036,0.0035,0.0038,0.0044,0.0046,0.0067,0.0078,0.0102,0.0107,0.0112,0.0087,0.0136,0.0104,0.0091,0.0115,0.0114,0.0114,0.0127,0.0128,0.0111,0.0111,0.0111,0,0.0081,0.0057,0.0051,0.0028,0.0012,0.0029,0.0008,0.0008,0.0021,0.0013,0.0046,0.0054,0.0079,0.0063,0.0071,0.0077,0.0108,0.011,0.0111,0.0111,0.0111,0.0125,0.0127,0.0109,0.0109,0.011,0.011,0,0.0049,0.0028,0.001,-0.0012,-0.0028,-0.0044,-0.0048,-0.0051,-0.0035,-0.0031,-0.0036,-0.0006,0.0005,0.0015,0.0046,0.0053,0.0079,0.0096,0.0126,0.0107,0.0123,0.0125,0.0106,0.0107,0.0108,0.0108,0,0,0.0026,-0.0006,-0.0011,-0.0032,-0.0051,-0.007,-0.0091,-0.0114,-0.0139,-0.0105,-0.0134,-0.0101,-0.0068,-0.0059,-0.0023,0.0013,0.0046,0.0074,0.0076,0.0091,0.011,0.0028,0.0023,0.0085,0.0085,0.0085,0.0118,0,0.0001,-0.0042,-0.0053,-0.0098,-0.0124,-0.0132,-0.0162,-0.0177,-0.018,-0.02,-0.0171,-0.017,-0.0102,-0.0082,-0.004,0.0025,0.0054,0.0036,0.0123,0.0125,0.0057,0.0023,0.0087,0.012,0.0121,0.0121,0.0121,0,-0.0029,-0.0055,-0.0101,-0.0152,-0.0168,-0.0194,-0.0251,-0.027,-0.0297,-0.0293,-0.028,-0.0248,-0.0199,-0.0137,-0.0033,-0.0033,0.004,0.009,0.0093,0.0031,0.0046,0.0145,0.0126,0.0126,0.0126,0.0125,0.0125,0,-0.0044,-0.0094,-0.0132,-0.0149,-0.0201,-0.0235,-0.0261,-0.0302,-0.0334,-0.0343,-0.0353,-0.0302,-0.0272,-0.0166,-0.0052,-0.0017,0.0047,0.0098,0.0076,0.0071,0.0157,0.0157,0.0155,0.0155,0.0155,0.0155,0.0155,0,-0.0071,-0.0107,-0.0145,-0.0171,-0.0239,-0.0261,-0.0334,-0.0355,-0.0394,-0.0424,-0.0387,-0.0386,-0.0265,-0.0214,-0.009,-0.0018,0.0017,0.0058,0.0068,0.0138,0.0136,0.0158,0.0158,0.0156,0.0156,0.0155,0.0155,0,-0.009,-0.0108,-0.0167,-0.0226,-0.025,-0.03,-0.0377,-0.0426,-0.0442,-0.0477,-0.0468,-0.0444,-0.036,-0.0282,-0.0144,-0.0092,-0.0003,0.0008,0.0045,0.0058,0.0024,0.0021,0.001,0.0007,0.0004,0.0002,0.0001,0,-0.0105,-0.0131,-0.0208,-0.0254,-0.0288,-0.0358,-0.0409,-0.0446,-0.0475,-0.0494,-0.0499,-0.0471,-0.0431,-0.0324,-0.0232,-0.0096,-0.0069,-0.0048,0.0023,-0.0005,0.0006,0.0008,0.0009,-0.0003,-0.0004,-0.0004,-0.0005,0,-0.0148,-0.0175,-0.0229,-0.0298,-0.0363,-0.0436,-0.0488,-0.0495,-0.0511,-0.054,-0.0505,-0.0467,-0.0428,-0.0329,-0.0283,-0.016,-0.007,-0.0071,-0.0063,0.0004,-0.002,-0.0006,-0.0003,-0.0013,-0.0012,-0.0011,-0.0011,0,-0.0192,-0.024,-0.0297,-0.0348,-0.0427,-0.0468,-0.0499,-0.0509,-0.0532,-0.0509,-0.0497,-0.0448,-0.0427,-0.0366,-0.0289,-0.0232,-0.0174,-0.0126,-0.0114,-0.0104,-0.0157,-0.0206,-0.0262,0,0,0,0,0,-0.0229,-0.0268,-0.0338,-0.0393,-0.0454,-0.0477,-0.0533,-0.0545,-0.0527,-0.0498,-0.0491,-0.0435,-0.0368,-0.0351,-0.0297,-0.0319,-0.0174,-0.0259,-0.0113,-0.0059,-0.0049,-0.0102,0,0,0,0,0,0,-0.0267,-0.0333,-0.0343,-0.0394,-0.041,-0.0477,-0.0494,-0.0492,-0.0465,-0.0444,-0.0403,-0.0414,-0.0344,-0.0368,-0.0282,-0.0275,-0.0178,-0.0236,-0.0236,-0.0064,-0.0055,-0.0048,-0.0098,0,0,0,0,0]}]]